DW8782 Weather Reports


time (UTC)temp
C
wind
direction
speed
KPH
gust
KPH
rain 1hr
cm
rain 24hr
cm
rain mn
cm
humidity
%
barometer
mb
20260504081524 14 100 0.0 1.6 0.00 0.00 0.00 68 1010.0
20260504080125 14 85 0.0 1.6 0.00 0.00 0.00 69 1009.9
20260504050104 17 73 0.0 1.6 0.00 0.00 0.00 68 1009.3
20260504044557 17 72 0.0 1.6 0.00 0.00 0.00 68 1009.3
20260504043053 17 72 0.0 1.6 0.00 0.00 0.00 67 1009.2
20260504041549 17 228 0.0 1.6 0.00 0.00 0.00 68 1009.1
20260504040051 17 228 0.0 1.6 0.00 0.00 0.00 68 1009.1
20260504034545 17 228 0.0 0.0 0.00 0.00 0.00 66 1009.0
20260504033043 17 228 0.0 0.0 0.00 0.00 0.00 64 1008.9
20260504031544 18 228 0.0 0.0 0.00 0.00 0.00 62 1008.8
20260504030041 18 228 0.0 1.6 0.00 0.00 0.00 57 1008.7
20260504024540 20 228 0.0 3.2 0.00 0.00 0.00 54 1008.7
20260504023035 21 232 0.0 4.8 0.00 0.00 0.00 47 1008.6
20260504021533 21 229 0.0 9.7 0.00 0.00 0.00 46 1008.6
20260504020032 22 80 0.0 4.8 0.00 0.00 0.00 44 1008.6
20260504014530 22 220 3.2 9.7 0.00 0.00 0.00 43 1008.7
20260504013035 23 263 4.8 9.7 0.00 0.00 0.00 42 1008.5
20260504011528 23 210 1.6 8.0 0.00 0.00 0.00 42 1008.7
20260504010024 23 154 1.6 11.3 0.00 0.00 0.00 39 1008.8
20260504004521 23 222 3.2 11.3 0.00 0.00 0.00 38 1008.7
20260504003020 23 234 4.8 16.1 0.00 0.00 0.00 38 1008.8
20260504001515 23 73 1.6 19.3 0.00 0.00 0.00 43 1009.1
20260504000033 23 231 3.2 16.1 0.00 0.00 0.00 42 1009.4
20260503234509 24 71 4.8 12.9 0.00 0.00 0.00 41 1009.5
20260503233008 23 210 4.8 14.5 0.00 0.00 0.00 41 1009.7
20260503231502 23 275 6.4 22.5 0.00 0.00 0.00 44 1009.9
20260503230104 23 218 3.2 14.5 0.00 0.00 0.00 44 1010.1
20260503224555 22 249 4.8 14.5 0.00 0.00 0.00 47 1010.3
20260503223053 22 278 3.2 17.7 0.00 0.00 0.00 48 1010.6
20260503221554 22 221 3.2 12.9 0.00 0.00 0.00 45 1010.7
20260503220044 22 239 3.2 12.9 0.00 0.00 0.00 48 1010.9
20260503214543 22 104 3.2 12.9 0.00 0.00 0.00 48 1011.1
20260503213039 22 129 4.8 12.9 0.00 0.00 0.00 44 1011.3
20260503211639 23 135 6.4 17.7 0.00 0.00 0.00 44 1011.4
20260503210031 24 300 1.6 14.5 0.00 0.00 0.00 43 1011.6
20260503204528 23 232 9.7 22.5 0.00 0.00 0.00 44 1011.8
20260503203039 22 210 4.8 12.9 0.00 0.00 0.00 47 1011.9
20260503201525 22 285 1.6 16.1 0.00 0.00 0.00 47 1012.1
20260503200020 22 201 4.8 16.1 0.00 0.00 0.00 45 1012.4
20260503194516 22 90 1.6 9.7 0.00 0.00 0.00 46 1012.5
20260503193017 23 134 1.6 9.7 0.00 0.00 0.00 43 1012.6
20260503191511 26 167 6.4 12.9 0.00 0.00 0.00 40 1012.6
20260503190011 27 225 0.0 4.8 0.00 0.00 0.00 32 1012.7
20260503184503 27 213 0.0 8.0 0.00 0.00 0.00 35 1012.9
20260503183059 27 222 0.0 4.8 0.00 0.00 0.00 38 1013.1
20260503181603 26 66 0.0 4.8 0.00 0.00 0.00 38 1013.3
20260503180048 25 151 0.0 4.8 0.00 0.00 0.00 44 1013.5
20260503174542 24 79 0.0 4.8 0.00 0.00 0.00 45 1013.6
20260503173051 23 80 1.6 8.0 0.00 0.00 0.00 45 1013.9
20260503171538 22 94 0.0 4.8 0.00 0.00 0.00 49 1014.0